Regional Weather Roundup
Issued by NWS

Home | Current Version | Previous Version | Text Only | Print | Product List | Glossary Off
Versions: 1 2 3 4 5 6 7 8 9 10 11 12 13 14 15 16 17 18 19 20 21 22 23 24 25 26 27 28 29 30 31 32 33 34 35 36 37 38 39 40 41 42 43 44 45 46 47 48 49 50

000
ASUS43 KDMX 031906
RWRIA

WEATHER ROUNDUP FOR IOWA
NATIONAL WEATHER SERVICE DES MOINES IA
100 PM CST SAT DEC 03 2016

NOTE: "FAIR" INDICATES FEW OR NO CLOUDS BELOW 12,000 FEET WITH NO
SIGNIFICANT WEATHER AND/OR OBSTRUCTIONS TO VISIBILITY.

* - THESE STATIONS ARE NOT NWS STATIONS...THUS NOT UNDER NWS
QUALITY CONTROL.  THEY ALSO DO NOT REPORT WEATHER SUCH
AS PRECIPITATION OR FOG.

IAZ001>003-012>014-020>022-031>034-043>046-032000-
   NORTHWEST IOWA

CITY           SKY/WX    TMP DP  RH WIND       PRES   REMARKS
CARROLL *      CLOUDY    39  32  75 S13       30.24F WCI  32
CHEROKEE *     CLOUDY    37  32  82 S9        30.23S WCI  30
DENISON *      CLOUDY    36  30  80 S10       30.22F WCI  28
LE MARS *      MOSUNNY   36  30  80 S17G23    30.21F WCI  25
ORANGE CITY *  CLOUDY    36  32  87 S17G23    30.20F WCI  25
SHELDON *      CLOUDY    37  34  87 S17       30.18F WCI  28
SIOUX CITY     LGT SNOW  36  32  85 S10       30.23F FOG     WCI  28
SPENCER        CLOUDY    37  31  78 S20       30.21F WCI  27
STORM LAKE *   CLOUDY    36  32  87 S14       30.22F WCI  27
$$

IAZ055>058-069>071-079>083-090>094-032000-
   SOUTHWEST IOWA

CITY           SKY/WX    TMP DP  RH WIND       PRES   REMARKS
ATLANTIC *     CLOUDY    39  30  70 S9        30.25F WCI  33
AUDUBON *      CLOUDY    37  32  81 S6        30.25F WCI  33
CLARINDA *       N/A     39  34  81 VRB5      30.27F
COUNCIL BLFS * LGT SNOW  34  34 100 S7        30.24F VSB 3/4 WCI  28
CRESTON *      CLOUDY    39  32  75 SE9       30.26F WCI  33
HARLAN  *      CLOUDY    37  32  81 S9        30.28F WCI  31
LAMONI         CLOUDY    40  32  73 SE7       30.25F
RED OAK *      CLOUDY    37  32  81 SE7       30.26F WCI  32
SHENANDOAH *   CLOUDY    37  32  81 CALM      30.26F
$$

IAZ047>049-059>061-072>074-084-032000-
   CENTRAL IOWA

CITY           SKY/WX    TMP DP  RH WIND       PRES   REMARKS
AMES           PTSUNNY   39  31  72 S6        30.26F WCI  35
ANKENY *       MOSUNNY   43  32  65 S8        30.28F
BOONE *        PTSUNNY   39  30  70 SE8       30.25F WCI  34
CHARITON *       N/A     39  30  70 S9        30.27F WCI  33
DES MOINES     CLOUDY    41  30  65 S9        30.28F
GRINNELL*      CLOUDY    38  30  73 S7        30.29F WCI  33
KNOXVILLE *    CLOUDY    39  30  70 S6        30.27F WCI  35
MARSHALLTOWN   CLOUDY    39  30  70 S6        30.27  WCI  35
NEWTON *       CLOUDY    39  30  70 S10       30.27F WCI  32
PELLA *        PTSUNNY   40  31  70 S7        30.30F WCI  35
PERRY *        PTSUNNY   39  32  76 SE9       30.26F WCI  33
$$

IAZ004>006-015-016-023>025-035-036-032000-
   NORTH CENTRAL IOWA

CITY           SKY/WX    TMP DP  RH WIND       PRES   REMARKS
ALGONA *       CLOUDY    39  32  75 S16       30.24S WCI  30
CLARION *      CLOUDY    37  32  81 S12       30.26S WCI  30
ESTHERVILLE    PTSUNNY   35  31  85 S12       30.22F WCI  27
FORT DODGE *   CLOUDY    39  28  65 S8        30.25F WCI  34
MASON CITY     PTSUNNY   35  26  69 S8        30.27F WCI  29
FOREST CITY *  CLOUDY    36  28  75 S7        30.26S WCI  30
WEBSTER CITY * MOSUNNY   39  32  75 S9        30.24F WCI  33
IOWA FALLS *   CLOUDY    39  29  68 S6        30.28F WCI  34
$$

IAZ007>011-017>019-026>030-037>042-050>054-066-032000-
   NORTHEAST IOWA

CITY           SKY/WX    TMP DP  RH WIND       PRES   REMARKS
CEDAR RAPIDS   CLOUDY    38  30  73 SW8       30.29F WCI  32
CHARLES CITY * MOSUNNY   36  25  64 CALM      30.27F
CLINTON *      CLOUDY    38  27  64 W7        30.33F WCI  33
DECORAH *      CLOUDY    32  21  64 VRB7G13   30.27F WCI  26
DUBUQUE        CLOUDY    34  26  72 S7        30.31F WCI  28
MONTICELLO *   CLOUDY    37  28  70 SW6       30.30F WCI  33
OELWEIN *      CLOUDY    36  25  64 CALM      30.29F
WATERLOO       SUNNY     39  25  57 CALM      30.28F
$$

IAZ064-065-067-068-078-032000-
   EAST CENTRAL IOWA

CITY           SKY/WX    TMP DP  RH WIND       PRES   REMARKS
DAVENPORT      CLOUDY    37  26  64 SW6       30.33F WCI  32
IOWA CITY      CLOUDY    40  27  59 SW9       30.34F WCI  34
MUSCATINE *    CLOUDY    39  27  60 S8        30.34F WCI  34
QUAD CITIES    CLOUDY    39  25  57 SW6       30.33F WCI  35
$$

IAZ062-063-075>077-085>089-095>099-032000-
   SOUTHEAST IOWA

CITY           SKY/WX    TMP DP  RH WIND       PRES   REMARKS
BURLINGTON     CLOUDY    38  29  70 SE6       30.32F WCI  33
FAIRFIELD *    CLOUDY    39  28  65 SE5       30.30F
FORT MADISON * CLOUDY    39  30  70 SE5       30.33F
KEOKUK *       PTSUNNY   41  30  65 SE9       30.32F
OSKALOOSA *    CLOUDY    38  30  70 S8        30.30F WCI  33
CENTERVILLE *    N/A     39  32  75 SE9       30.29F WCI  33
OTTUMWA        CLOUDY    40  29  64 S6        30.29F
WASHINGTON *   CLOUDY    39  28  65 S6        30.32F WCI  35
$$

ABBREVIATIONS USED IN REMARKS
   TC - TEMPERATURES IN CELSIUS
  WCI - WIND CHILL INDEX
   HX - HEAT INDEX
  VSB - VISIBILITY
$$





USA.gov is the U.S. government's official web portal to all federal, state and local government web resources and services.